www.pogodaiklimat.ru

Погода и климат >> Архив погоды >> Индия >> Cannanore


ПОГОДА в Cannanore

  • Прогноз погоды в Cannanore
  • Монитор погоды в Cannanore
  • Климат города

АРХИВ ПОГОДЫ в Cannanore

Время (UTC), дата Ветер
(напр.,м/с)
 
Видим.   Явления Облачность Т
(С)
Тd
(С)
f
(%)
Тe
(С)
Тes
(С)
Комфортность P
(гПа)
Po
(гПа)
Тmin
(С)
Tmax
(С)
R
(мм)
R24
(мм)
S
(см)
00 11.11 штиль 0 2000 м дымка 1/0
[Ci fib]
+24.0 +21.3 85 +30 +30 очень
душно
1010.7 1011.0
03 11.11 штиль 0 4000 м мгла 4/0
[Ci fib]
+26.0 +20.5 72 +32 +37 очень
душно
1013.3 1013.0 +23.4 +33.8
06 11.11 штиль 0 10 км 1/0
[Ci fib]
+32.6 +20.7 50 +40 +60 опасность
солнечного
удара
1012.0 1012.0
09 11.11 ЮЗ 3 10 км 1/0
[Ci fib]
+32.4 +23.2 58 +43 +53 опасность
перегрева
1009.4 1009.0
12 11.11 СЗ 1 10 км 4/3 600 м
[Cu Sc Ci fib]
+30.2 +25.4 76 +44 +45 опасность
перегрева
1009.6 1010.0 +33.8
00 12.11 штиль 0 2000 м дымка 1/0
[Ci fib]
+24.6 +23.1 91 +33 +33 очень
душно
1010.4 1010.0
03 12.11 СВ 1 10 км 3/0
[Ci fib]
+26.0 +21.5 76 +33 +37 очень
душно
1012.1 1012.0 +24.0 +33.8
06 12.11 ЮЗ 2 10 км 1/0
[Ci fib]
+31.2 +23.1 62 +41 +58 опасность
перегрева
1011.0 1011.0
09 12.11 СЗ 3 10 км 3/1 600 м
[Cu Sc Ci fib]
+31.6 +24.5 66 +44 +52 опасность
перегрева
1008.4 1008.0
12 12.11 СЗ 1 4000 м 3/1 600 м
[Cu Sc Ci fib]
+30.0 +24.6 73 +43 +43 опасность
перегрева
1008.4 1008.0 +31.9
00 13.11 штиль 0 2000 м дымка 1/0
[Ci fib]
+24.6 +23.1 91 +33 +33 очень
душно
1009.7 1010.0
03 13.11 штиль 0 4000 м мгла 3/0
[Ci fib]
+26.0 +22.4 81 +34 +39 очень
душно
1011.1 1011.0 +24.0 +31.9
06 13.11 ЮЗ 2 10 км 4/3 600 м
[Cu Sc Ci fib]
+31.8 +24.7 66 +45 +55 опасность
перегрева
1010.0 1010.0
09 13.11 ЮЗ 4 10 км 1/0
[Ci fib]
+31.6 +24.8 67 +45 +52 опасность
перегрева
1006.8 1007.0
12 13.11 З 2 4000 м 5/1 600 м
[Cu Sc Ci sp]
+30.0 +24.6 73 +43 +43 опасность
перегрева
1006.4 1006.0 +32.0
00 14.11 штиль 0 2000 м дымка 3/0
[Ci fib]
+24.0 +22.2 90 +31 +31 очень
душно
1008.4 1008.0
03 14.11 штиль 0 4000 м мгла 1/0
[Ci fib]
+25.2 +18.6 67 +30 +35 душно 1010.3 1010.0 +22.9 +32.0
06 14.11 ЮЗ 1 10 км 1/0
[Ci fib]
+32.0 +15.7 37 +34 +52 опасность
солнечного
удара
1009.6 1010.0
09 14.11 З 3 10 км 1/0
[Ci fib]
+32.6 +21.0 51 +40 +50 очень
душно
1007.0 1007.0
12 14.11 З 2 4000 м 1/0
[Ci fib]
+30.0 +23.7 69 +41 +42 опасность
перегрева
1006.5 1007.0 +32.9
00 15.11 штиль 0 2000 м дымка 3/0
[Ci fib]
+22.6 +18.5 78 +28 +28 душно 1008.0 1008.0
03 15.11 штиль 0 4000 м мгла 1/0
[Ci fib]
+25.4 +16.7 59 +29 +34 душно 1010.8 1011.0 +21.6 +32.9
06 15.11 штиль 0 10 км 3/0
[Ci fib]
+31.8 +15.0 36 +34 +53 опасность
солнечного
удара
1010.2 1010.0
09 15.11 З 3 10 км 1/0
[Ci fib]
+32.4 +22.2 55 +41 +52 опасность
перегрева
1007.2 1007.0
12 15.11 ЮЗ 1 4000 м 3/0
[Ci fib]
+30.4 +21.5 59 +38 +39 очень
душно
1007.3 1007.0 +33.2
00 16.11 штиль 0 2000 м дымка 3/0
[Ci fib]
+25.0 +22.9 88 +33 +33 очень
душно
1007.9 1008.0
03 16.11 штиль 0 4000 м мгла 4/1 600 м
[Cu Sc Ac trans Ci fib]
+27.6 +22.3 73 +36 +40 очень
душно
1010.3 1010.0 +24.4 +33.2
06 16.11 СВ 2 10 км 5/3 600 м
[Sc Ac trans Ci fib]
+33.6 +20.5 46 +40 +50 очень
душно
1009.2 1009.0
09 16.11 З 3 10 км 6/4 600 м
[Cb calv Ac trans Ci sp]
+32.2 +22.9 58 +42 +47 опасность
перегрева
1006.3 1006.0
12 16.11 штиль 0 4000 м 8/4 600 м
[Cu Sc Ac trans Ci sp]
+30.8 +23.3 64 +41 +41 опасность
перегрева
1006.0 1006.0 +33.7
00 17.11 В 1 2000 м дымка 4/1 600 м
[Sc Ac trans Ci fib]
+26.2 +23.6 86 +36 +36 очень
душно
1008.6 1009.0
03 17.11 В 2 4000 м 6/1 600 м
[Cu Sc Ac trans Ci sp]
+27.0 +22.6 77 +36 +38 очень
душно
1010.9 1011.0 +25.8 +33.7
06 17.11 В 2 10 км 8/3 600 м
[Cu Sc Ac trans Ci sp]
+29.2 +22.8 68 +39 +46 очень
душно
1010.6 1011.0
09 17.11 Ю 8 10 км 4/1 600 м
[Cu Sc Ci sp]
+32.4 +24.1 62 +45 +47 опасность
перегрева
1008.1 1008.0
12 17.11 Ю 3 10 км 3/1 600 м
[Cu Sc Ci fib]
+29.8 +23.4 69 +40 +41 очень
душно
1008.3 1008.0 +32.5

 

Местоположение метеостанции Cannanore (Kerala, Индия): широта 11.83 долгота 75.33 высота над уровнем моря 18 м.

В архиве по умолчанию представлена погода в Cannanore за последнюю неделю. Архивные данные за месяц целиком и за предыдущие месяцы, начиная с января 2011 года, Вы можете получить, выбрав интересующий диапазон дат из раскрывающегося списка и нажав кнопку "Ввод!".


*Определитесь, кто Вы:
робот инопланетянин человек

Внимание! Время в таблицах - всемирное. Для получения местного времени необходимо прибавить поправку, которая в Cannanore равна 5.5 ч.

Смотрите также архив погоды в соседних городах и на ближайших метеорологических станциях:

Погода в Madikeri (Karnataka, Индия) (79 км)
Погода в Kozhikode (Kerala, Индия) (81 км)
Погода в Karipur (Kerala, Индия) (103 км)
Погода в Mangalore Airport (Karnataka, Индия) (131 км)
Погода в Mangalore (Karnataka, Индия) (136 км)
Погода в Mysore (Karnataka, Индия) (158 км)
Погода в Udhagamandalam (Tamil Nadu, Индия) (160 км)
Погода в Chickmagalur (Karnataka, Индия) (164 км)
Погода в Hassan (Karnataka, Индия) (167 км)
Погода в Coonoor (Tamil Nadu, Индия) (169 км)

Пояснения к столбцам:

Ветер - указаны скорость ветра в м/с - средняя за 10 мин, порывы в срок и между сроками (в фигурных скобках) и направление, откуда дует ветер: С - северный, СВ - северо-восточный, В - восточный, ЮВ - юго-восточный, Ю - южный, ЮЗ - юго-западный, З - западный, СЗ - северо-западный.
Видимость - горизонтальная дальность видимости в метрах или километрах. При видимости от 1 до 10 км при отсутствии осадков обычно наблюдается дымка, при ухудшении видимости до 1 км и менее - туман. В сухую погоду видимость может ухудшаться дымом, пылью или мглою.
Явления - указаны атмосферные явления, наблюдавшиеся в срок или в последний час перед сроком; фигурными скобками обозначены явления, наблюдавшиеся между сроками (за 1-3 часа до срока); квадратными скобками обозначены град или гололедные отложения с указанием их диаметра в мм.
Облачность - указаны через наклонную черту общая и нижняя облачность в баллах и высота нижней границы облаков в метрах; квадратными скобками обозначены формы облаков: Ci - перистые, Cs - перисто-слоистые, Cc - перисто-кучевые, Ac - высококучевые, As - высокослоистые, Sc - слоисто-кучевые, Ns - слоисто-дождевые, Cu - кучевые, Cb - кучево-дождевые. Подробнее классификацию облаков см. в Атласе облаков (PDF).
T - Температура воздуха - температура, измеренная на высоте 2 м над землей.
Td - Температура точки росы - температура, при понижении до которой содержащийся в воздухе водяной пар достигнет насыщения.
f - Относительная влажность воздуха - влажноcть воздуха, измеренная на высоте 2 м над землей.
Te - Эффективная температура - температура, которую ощущает одетый по сезону человек в тени. Характеристика душности погоды. При расчете учитывается влияние влажности воздуха и скорости ветра на теплоощущения человека.
Tes - Эффективная температура на солнце - температура, которую ощущает человек, с поправкой на солнечный нагрев. Характеристика знойности погоды. Зависит от высоты солнца над горизонтом, облачности и скорости ветра. Ночью, в пасмурную погоду, а также при ветре 12 м/с и более поправка равна нулю.
P - Атмосферное давление - приведенное к уровню моря атмосферное давление.
Po - Атмосферное давление - измеренное на уровне метеостанции атмосферное давление.
Tmin - Минимальная температура - минимум температуры воздуха на высоте 2 м над землей.
Tmax - Максимальная температура - максимум температуры воздуха на высоте 2 м над землей.
R - Количество осадков - Количество выпавших осадков за период времени, мм. При наведении курсора мыши на число - период времени, за который выпало указанное количество осадков.
R24 - Количество осадков - Количество выпавших осадков за 24 часа, мм.
S - Снежный покров - Высота снежного покрова, см. При наведении курсора мыши на число - состояние снежного покрова и степень покрытия местности в баллах.